K0SDS Weather Reports


time (UTC)temp
F
wind
direction
speed
knots
gust
knots
rain 1hr
in
rain 24hr
in
rain mn
in
humidity
%
barometer
mb
20260505071605 56 59 2.6 2.6 0.00 0.01 0.01 57 1008.1
20260505071104 56 152 2.6 2.6 0.00 0.01 0.01 53 1007.9
20260505070601 56 47 1.7 1.7 0.07 0.01 0.01 55 1007.9
20260505070056 56 13 4.3 7.8 0.07 0.01 0.01 57 1007.4
20260505065553 57 52 0.9 1.7 0.00 0.00 0.00 56 1007.8
20260505065049 57 62 1.7 1.7 0.00 0.00 0.00 53 1008.0
20260505064546 58 343 2.6 4.3 0.00 0.00 0.00 49 1008.2
20260505064045 59 32 4.3 5.2 0.00 0.00 0.00 47 1007.9
20260505063542 59 31 4.3 5.2 0.00 0.00 0.00 46 1008.1
20260505063037 59 70 1.7 1.7 0.00 0.00 0.00 49 1008.1
20260505062534 60 52 3.5 4.3 0.00 0.00 0.00 46 1007.7
20260505062032 61 316 6.1 7.0 0.00 0.00 0.00 44 1007.4
20260505061529 61 10 3.5 4.3 0.00 0.00 0.00 42 1006.5
20260505061027 62 73 1.7 2.6 0.00 0.00 0.00 42 1006.1
20260505060524 62 344 7.8 8.7 0.00 0.00 0.00 41 1005.6
20260505060021 63 325 5.2 8.7 0.00 0.00 0.00 41 1005.9
20260505055516 63 352 7.8 13.9 0.00 0.00 0.00 41 1005.7
20260505055013 63 40 7.8 9.6 0.00 0.00 0.00 40 1005.4
20260505054510 63 347 7.8 8.7 0.00 0.00 0.00 40 1005.5
20260505054008 64 347 6.1 7.0 0.00 0.00 0.00 40 1005.3
20260505053505 64 56 7.0 11.3 0.00 0.00 0.00 40 1005.1
20260505053001 65 56 4.3 6.1 0.00 0.00 0.00 40 1005.1
20260505052459 65 8 9.6 11.3 0.00 0.00 0.00 39 1004.7
20260505051956 66 53 2.6 4.3 0.00 0.00 0.00 41 1005.0
20260505051453 67 357 4.3 5.2 0.00 0.00 0.00 41 1004.8
20260505050951 67 29 4.3 7.0 0.00 0.00 0.00 41 1004.7
20260505050449 67 2 6.1 7.8 0.00 0.00 0.00 40 1004.5
20260505041417 70 16 2.6 5.2 0.00 0.00 0.00 41 1003.4
20260505040914 70 56 3.5 5.2 0.00 0.00 0.00 41 1003.6
20260505040411 71 81 3.5 4.3 0.00 0.00 0.00 40 1003.7
20260505035908 71 48 0.9 1.7 0.00 0.00 0.00 41 1003.8
20260505035404 71 50 3.5 5.2 0.00 0.00 0.00 41 1003.6
20260505034901 71 346 4.3 5.2 0.00 0.00 0.00 41 1003.8
20260505034357 71 353 3.5 5.2 0.00 0.00 0.00 42 1003.7
20260505033855 71 348 7.8 9.6 0.00 0.00 0.00 43 1003.5
20260505033351 71 18 3.5 5.2 0.00 0.00 0.00 44 1003.4
20260505032850 71 69 2.6 2.6 0.00 0.00 0.00 48 1003.5
20260505032346 70 0 3.5 4.3 0.00 0.00 0.00 54 1003.2
20260505031843 70 93 0.9 0.9 0.00 0.00 0.00 59 1003.4
20260505031339 70 32 3.5 5.2 0.00 0.00 0.00 59 1003.1
20260505030837 70 53 0.9 0.9 0.00 0.00 0.00 63 1003.0
20260505030332 70 67 3.5 4.3 0.00 0.00 0.00 67 1002.8
20260505025828 71 78 0.0 0.0 0.00 0.00 0.00 65 1002.5
20260505025326 71 113 0.9 0.9 0.00 0.00 0.00 63 1002.2
20260505024824 72 128 0.9 1.7 0.00 0.00 0.00 62 1001.8
20260505024322 72 127 2.6 2.6 0.00 0.00 0.00 61 1001.8
20260505023819 72 132 2.6 2.6 0.00 0.00 0.00 61 1001.8
20260505023315 72 130 3.5 4.3 0.00 0.00 0.00 61 1001.7
20260505022813 72 126 2.6 2.6 0.00 0.00 0.00 61 1002.0
20260505022310 72 107 2.6 2.6 0.00 0.00 0.00 61 1001.8
20260505021807 72 99 0.9 1.7 0.00 0.00 0.00 62 1001.7
20260505021304 71 129 2.6 2.6 0.00 0.00 0.00 62 1001.7
20260505020759 71 108 1.7 1.7 0.00 0.00 0.00 64 1001.6
20260505020255 69 97 0.9 0.9 0.00 0.00 0.00 68 1001.5
20260505015752 69 91 0.9 0.9 0.00 0.00 0.00 70 1001.6
20260505015249 70 85 0.0 0.0 0.00 0.00 0.00 68 1001.6
20260505014746 70 79 0.0 0.0 0.00 0.00 0.00 66 1001.2
20260505014244 70 98 0.9 0.9 0.00 0.00 0.00 66 1001.2
20260505013740 70 94 0.9 0.9 0.00 0.00 0.00 65 1001.0
20260505013237 70 89 0.9 0.9 0.00 0.00 0.00 66 1001.2
20260505012735 70 98 0.9 0.9 0.00 0.00 0.00 65 1001.1
20260505012232 71 79 0.0 0.9 0.00 0.00 0.00 66 1001.0
20260505011728 71 76 0.9 0.9 0.00 0.00 0.00 64 1001.2
20260505011226 72 77 0.0 0.0 0.00 0.00 0.00 64 1000.8
20260505010721 72 84 0.0 0.0 0.00 0.00 0.00 63 1001.0
20260505010218 73 83 0.0 0.0 0.00 0.00 0.00 61 1000.6
20260505005714 74 84 0.0 0.0 0.00 0.00 0.00 61 1000.8
20260505005211 75 84 0.0 0.0 0.00 0.00 0.00 59 1000.7
20260505004708 76 83 0.9 0.9 0.00 0.00 0.00 55 1000.7
20260505004204 77 98 1.7 1.7 0.00 0.00 0.00 54 1000.8
20260505003702 77 102 1.7 1.7 0.00 0.00 0.00 53 1000.7
20260505003200 77 107 1.7 1.7 0.00 0.00 0.00 52 1000.8
20260505002655 78 88 0.0 0.0 0.00 0.00 0.00 52 1000.7
20260505002154 79 90 0.0 0.0 0.00 0.00 0.00 50 1000.6
20260505001650 79 101 0.9 0.9 0.00 0.00 0.00 49 1000.6
20260505001148 80 97 0.9 0.9 0.00 0.00 0.00 49 1000.7
20260505000645 80 126 1.7 1.7 0.00 0.00 0.00 47 1000.7
20260505000143 80 93 0.0 0.9 0.00 0.00 0.00 50 1000.7
20260504235638 79 93 0.9 0.9 0.00 0.00 0.00 49 1000.7
20260504235129 79 91 0.9 0.9 0.00 0.00 0.00 52 1000.7
20260504234627 80 172 1.7 1.7 0.00 0.00 0.00 48 1000.7
20260504234124 80 103 0.9 0.9 0.00 0.00 0.00 48 1000.9
20260504233620 79 192 1.7 1.7 0.00 0.00 0.00 49 1000.9
20260504233116 79 142 4.3 6.1 0.00 0.00 0.00 47 1000.8
20260504232614 80 95 0.9 0.9 0.00 0.00 0.00 48 1000.8
20260504232110 80 173 4.3 6.1 0.00 0.00 0.00 46 1000.8
20260504231607 80 170 1.7 1.7 0.00 0.00 0.00 46 1000.8
20260504231103 80 122 1.7 1.7 0.00 0.00 0.00 45 1000.7
20260504230558 80 157 2.6 4.3 0.00 0.00 0.00 43 1000.7
20260504230053 80 162 2.6 4.3 0.00 0.00 0.00 45 1000.7
20260504225550 81 132 2.6 4.3 0.00 0.00 0.00 44 1000.5
20260504225047 81 155 1.7 1.7 0.00 0.00 0.00 41 1000.7
20260504224543 82 203 3.5 5.2 0.00 0.00 0.00 39 1000.6
20260504224040 82 177 2.6 4.3 0.00 0.00 0.00 40 1000.7
20260504223537 83 242 2.6 4.3 0.00 0.00 0.00 39 1000.4
20260504223033 84 183 2.6 2.6 0.00 0.00 0.00 38 1000.6
20260504222530 84 116 1.7 1.7 0.00 0.00 0.00 37 1000.5
20260504222027 84 134 2.6 2.6 0.00 0.00 0.00 39 1000.6
20260504221525 83 234 1.7 2.6 0.00 0.00 0.00 38 1000.6
20260504221021 83 159 3.5 4.3 0.00 0.00 0.00 38 1000.8
20260504220518 82 131 0.9 1.7 0.00 0.00 0.00 40 1000.7
20260504220015 81 157 4.3 5.2 0.00 0.00 0.00 38 1000.9
20260504215511 81 179 6.1 7.8 0.00 0.00 0.00 38 1001.0
20260504215009 82 154 1.7 1.7 0.00 0.00 0.00 42 1001.0
20260504214505 82 108 0.9 0.9 0.00 0.00 0.00 42 1000.9
20260504214001 82 148 3.5 4.3 0.00 0.00 0.00 43 1001.1
20260504213457 81 172 2.6 4.3 0.00 0.00 0.00 44 1001.1
20260504212955 81 198 2.6 2.6 0.00 0.00 0.00 42 1000.9
20260504212450 81 250 4.3 5.2 0.00 0.00 0.00 40 1001.1
20260504211948 81 127 2.6 4.3 0.00 0.00 0.00 42 1001.4
20260504211444 81 101 2.6 2.6 0.00 0.00 0.00 43 1001.2
20260504210942 81 146 2.6 4.3 0.00 0.00 0.00 44 1001.3
20260504210439 82 194 4.3 5.2 0.00 0.00 0.00 41 1001.6
20260504205936 82 206 3.5 4.3 0.00 0.00 0.00 44 1001.1
20260504205433 82 120 1.7 1.7 0.00 0.00 0.00 41 1001.3
20260504204931 82 265 4.3 7.0 0.00 0.00 0.00 39 1001.4
20260504204429 82 257 1.7 1.7 0.00 0.00 0.00 42 1001.5
20260504203928 82 184 2.6 2.6 0.00 0.00 0.00 44 1001.2
20260504203426 82 202 3.5 4.3 0.00 0.00 0.00 38 1001.2
20260504202921 83 203 2.6 2.6 0.00 0.00 0.00 39 1001.6
20260504202418 82 112 1.7 1.7 0.00 0.00 0.00 36 1001.6
20260504201915 82 173 2.6 4.3 0.00 0.00 0.00 38 1001.5
20260504201412 83 225 2.6 2.6 0.00 0.00 0.00 41 1001.8
20260504200910 83 263 3.5 5.2 0.00 0.00 0.00 40 1001.8
20260504200406 83 192 3.5 5.2 0.00 0.00 0.00 38 1001.6
20260504195903 83 197 3.5 5.2 0.00 0.00 0.00 39 1001.7
20260504195358 83 247 3.5 4.3 0.00 0.00 0.00 39 1001.7
20260504194855 82 237 4.3 5.2 0.00 0.00 0.00 38 1001.7
20260504194351 83 223 3.5 4.3 0.00 0.00 0.00 40 1001.7
20260504193847 82 226 4.3 7.0 0.00 0.00 0.00 39 1002.0
20260504193344 83 105 4.3 6.1 0.00 0.00 0.00 41 1001.5
20260504192844 82 194 3.5 5.2 0.00 0.00 0.00 40 1001.6
20260504192341 82 115 1.7 1.7 0.00 0.00 0.00 39 1001.6
20260504191839 81 196 4.3 5.2 0.00 0.00 0.00 40 1002.0
20260504191337 82 162 1.7 2.6 0.00 0.00 0.00 42 1001.7
20260504190832 82 261 7.8 8.7 0.00 0.00 0.00 39 1001.8
20260504190328 81 256 3.5 4.3 0.00 0.00 0.00 39 1001.9
20260504185825 81 188 6.1 8.7 0.00 0.00 0.00 44 1002.0
20260504185322 81 215 4.3 5.2 0.00 0.00 0.00 47 1001.9
20260504184818 80 156 3.5 4.3 0.00 0.00 0.00 44 1002.1
20260504184314 80 142 2.6 2.6 0.00 0.00 0.00 45 1001.9
20260504183809 80 188 5.2 6.1 0.00 0.00 0.00 47 1001.7
20260504183307 80 82 2.6 2.6 0.00 0.00 0.00 43 1002.0
20260504182805 81 190 3.5 4.3 0.00 0.00 0.00 45 1002.0
20260504182304 80 157 2.6 2.6 0.00 0.00 0.00 46 1001.9
20260504181759 80 233 3.5 5.2 0.00 0.00 0.00 45 1001.9
20260504181256 80 167 3.5 4.3 0.00 0.00 0.00 50 1001.7
20260504180755 79 248 3.5 6.1 0.00 0.00 0.00 47 1002.1
20260504180254 79 230 2.6 4.3 0.00 0.00 0.00 46 1002.4
20260504175751 78 280 6.1 7.0 0.00 0.00 0.00 46 1002.0
20260504175248 79 174 6.1 7.8 0.00 0.00 0.00 47 1002.2
20260504174745 78 181 4.3 6.1 0.00 0.00 0.00 48 1002.2
20260504174243 78 147 5.2 7.0 0.00 0.00 0.00 46 1002.4
20260504173739 78 208 4.3 5.2 0.00 0.00 0.00 47 1002.2
20260504173237 78 145 3.5 4.3 0.00 0.00 0.00 45 1002.4
20260504172733 78 233 6.1 7.8 0.00 0.00 0.00 46 1002.5
20260504172230 78 234 4.3 5.2 0.00 0.00 0.00 45 1002.4
20260504171726 78 99 2.6 4.3 0.00 0.00 0.00 46 1002.2
20260504171223 77 236 3.5 5.2 0.00 0.00 0.00 48 1002.6
20260504170720 77 283 2.6 2.6 0.00 0.00 0.00 49 1002.7
20260504170218 77 177 2.6 2.6 0.00 0.00 0.00 48 1002.6
20260504160136 75 232 5.2 7.0 0.00 0.00 0.00 50 1002.8
20260504151103 72 166 3.5 4.3 0.00 0.00 0.00 55 1002.8
20260504150601 71 210 5.2 7.8 0.00 0.00 0.00 54 1003.0
20260504141026 68 221 4.3 5.2 0.00 0.00 0.00 59 1002.9
20260504140523 68 186 4.3 6.1 0.00 0.00 0.00 59 1003.3
20260504130447 63 111 2.6 2.6 0.00 0.00 0.00 65 1002.9
20260504110334 60 118 1.7 1.7 0.00 0.00 0.00 67 1002.8
20260504100252 56 93 0.0 0.0 0.00 0.00 0.00 77 1003.7
20260504081645 63 85 0.0 0.0 0.00 0.00 0.00 59 1004.3
20260504081141 63 103 0.9 1.7 0.00 0.00 0.00 58 1004.2
20260504080638 63 88 0.0 0.0 0.00 0.00 0.00 58 1004.2
20260504080134 64 118 0.9 0.9 0.00 0.00 0.00 57 1004.4